Location: Squirrel Cove
(50.1074°N, 124.9139°W)
Time: 19:21:55
(UTC-08:00)

Envisat - Pass Details

Date: 26 November 2022
Orbit: 763 x 765 km, 98.2° (Epoch: 05 February)

Event Time Altitude Azimuth Distance (km) Brightness Sun altitude
Rises 04:01:37 0° 20° (NNE) 3,246 6.6 -35.9°
Reaches altitude 10° 04:04:05 10° 28° (NNE) 2,315 5.8 -35.5°
Enters shadow 04:07:28 32° 62° (ENE) 1,289 4.5 -35.0°
